Charlottesville, VA

1:00 AM EDT on September 25, 2017 (GMT -0400)
Charlottesville-Albemarle

Weather History for KCHO - August, 2013

Change the Weather History Date:

Saturday, August 24, 2013

  Actual Average Record
Temperature  
Mean Temperature 68 °F 73 °F  
Max Temperature 81 °F 84 °F 101 °F (1914)
Min Temperature 54 °F 62 °F 52 °F (1994)
Degree Days  
Heating Degree Days 0 0  
Month to date heating degree days 5 0  
Since 1 June heating degree days 7 12  
Since 1 July heating degree days 5 1  
Cooling Degree Days 3 8  
Month to date cooling degree days 172 226  
Year to date cooling degree days 939 856  
Since 1 June cooling degree days 792 770  
Growing Degree Days 16 (Base 50)    
Moisture  
Dew Point 56 °F    
Average Humidity 70    
Maximum Humidity 100    
Minimum Humidity 39    
Precipitation  
Precipitation 0.00 in 0.09 in 0.74 in (1983)
Month to date precipitation 5.18 2.96  
Year to date precipitation 32.58 27.48  
Sea Level Pressure  
Sea Level Pressure 30.23 in    
Wind  
Wind Speed 3 mph (NE)    
Max Wind Speed 13 mph    
Max Gust Speed 18 mph    
Visibility 5 miles    
Events Fog    
T = Trace of Precipitation, MM = Missing Value Source: NWS Daily Summary

Daily Weather History Graph

Daily Weather History Graph

Search for Another Location

Airport or City:

Trip Planner

Search our weather history database for the weather conditions in past years. The results will help you decide how hot, cold, wet, or windy it might be!

Date:

Astronomy

Aug. 24, 2013 Rise Set
Actual Time 6:36 AM EDT 7:54 PM EDT
Civil Twilight 6:09 AM EDT 8:22 PM EDT
Nautical Twilight 5:36 AM EDT 8:54 PM EDT
Astronomical Twilight 5:01 AM EDT 9:29 PM EDT
Moon 9:52 PM EDT (8/24) 10:29 AM EDT (8/24)
Length of Visible Light 14h 12m
Length of Day
13h 17m
Waning Gibbous, 84% of the Moon is Illuminated
Aug 24
Waning Gibbous
Aug 28
Last Quarter
Sep 5
New
Sep 12
First Quarter
Sep 19
Full

Hourly Weather History & Observations

Time (EDT) Temp. Heat Index Dew Point Humidity Pressure Visibility Wind Dir Wind Speed Gust Speed Precip Events Conditions
12:53 AM 59.0 °F - 59.0 °F 100% 30.15 in 0.2 mi Calm Calm - N/A Fog Fog
1:53 AM 57.9 °F - 57.9 °F 100% 30.15 in 0.2 mi Calm Calm - 0.01 in Fog Fog
2:53 AM 57.9 °F - 57.0 °F 97% 30.16 in 0.5 mi Calm Calm - N/A Fog Fog
3:30 AM 55.4 °F - 55.4 °F 100% 30.18 in 1.0 mi Calm Calm - N/A   Mist
3:50 AM 55.4 °F - 55.4 °F 100% 30.18 in 0.8 mi Calm Calm - N/A   Mist
3:53 AM 55.9 °F - 55.0 °F 97% 30.17 in 1.0 mi Calm Calm - N/A   Mist
4:03 AM 55.4 °F - 55.4 °F 100% 30.18 in 1.5 mi Calm Calm - N/A   Scattered Clouds
4:08 AM 57.2 °F - 55.4 °F 94% 30.19 in 3.0 mi Calm Calm - N/A   Partly Cloudy
4:18 AM 55.4 °F - 55.4 °F 100% 30.19 in 2.0 mi Calm Calm - N/A   Mostly Cloudy
4:25 AM 55.4 °F - 55.4 °F 100% 30.19 in 1.5 mi Calm Calm - N/A   Mostly Cloudy
4:35 AM 55.4 °F - 55.4 °F 100% 30.19 in 0.5 mi Calm Calm - N/A Fog Fog
4:53 AM 55.0 °F - 54.0 °F 96% 30.19 in 0.5 mi Calm Calm - N/A Fog Fog
5:27 AM 53.6 °F - 53.6 °F 100% 30.20 in 2.0 mi Calm Calm - N/A   Mostly Cloudy
5:35 AM 55.4 °F - 53.6 °F 94% 30.21 in 4.0 mi Calm Calm - N/A   Overcast
5:38 AM 55.4 °F - 53.6 °F 94% 30.21 in 1.8 mi Calm Calm - N/A   Overcast
5:48 AM 53.6 °F - 53.6 °F 100% 30.21 in 0.5 mi Calm Calm - N/A Fog Fog
5:53 AM 55.9 °F - 55.0 °F 97% 30.20 in 0.8 mi Calm Calm - N/A   Mist
5:55 AM 55.4 °F - 55.4 °F 100% 30.21 in 1.2 mi Calm Calm - N/A   Scattered Clouds
6:05 AM 53.6 °F - 53.6 °F 100% 30.21 in 2.5 mi Calm Calm - N/A   Partly Cloudy
6:38 AM 55.4 °F - 53.6 °F 94% 30.23 in 3.0 mi Calm Calm - N/A   Clear
6:53 AM 55.0 °F - 54.0 °F 96% 30.22 in 4.0 mi Calm Calm - N/A   Clear
7:53 AM 59.0 °F - 57.9 °F 96% 30.24 in 10.0 mi Calm Calm - N/A   Clear
8:53 AM 64.9 °F - 60.1 °F 84% 30.26 in 10.0 mi Calm Calm - N/A   Clear
9:53 AM 69.1 °F - 61.0 °F 75% 30.27 in 10.0 mi North 3.5 mph - N/A   Clear
10:53 AM 73.0 °F - 60.1 °F 64% 30.28 in 10.0 mi NE 8.1 mph - N/A   Clear
11:53 AM 75.0 °F - 59.0 °F 57% 30.28 in 10.0 mi ENE 5.8 mph - N/A   Clear
12:53 PM 78.1 °F - 59.0 °F 52% 30.27 in 10.0 mi NNE 5.8 mph - N/A   Clear
1:53 PM 79.0 °F - 57.0 °F 47% 30.26 in 10.0 mi East 9.2 mph - N/A   Clear
2:53 PM 79.0 °F - 57.0 °F 47% 30.27 in 10.0 mi ENE 5.8 mph - N/A   Scattered Clouds
3:53 PM 80.1 °F 80.2 °F 55.9 °F 43% 30.27 in 10.0 mi ENE 11.5 mph 18.4 mph N/A   Scattered Clouds
4:53 PM 80.1 °F 80.0 °F 54.0 °F 40% 30.27 in 10.0 mi ENE 5.8 mph - N/A   Clear
5:53 PM 79.0 °F - 55.0 °F 44% 30.27 in 10.0 mi ENE 6.9 mph - N/A   Clear
6:53 PM 75.9 °F - 55.0 °F 48% 30.26 in 10.0 mi East 3.5 mph - N/A   Clear
7:53 PM 70.0 °F - 57.9 °F 65% 30.27 in 10.0 mi Calm Calm - N/A   Clear
8:53 PM 66.0 °F - 59.0 °F 78% 30.29 in 10.0 mi Calm Calm - N/A   Clear
9:53 PM 64.0 °F - 60.1 °F 87% 30.31 in 10.0 mi North 3.5 mph - N/A   Clear
10:53 PM 64.0 °F - 57.9 °F 80% 30.32 in 10.0 mi Calm Calm - N/A   Clear
11:53 PM 60.1 °F - 57.9 °F 93% 30.33 in 10.0 mi Calm Calm - N/A   Clear